Powrót do katalogu

FENGYUN 1C DEB

LostPO
NORAD 31418·DEBRIS·🇨🇳 China

Wystrzelony May 10, 1999 z Taiyuan Satellite Launch Center

Loading…

Następne Przeloty (najbliższe 24 godziny)

TLE

NieaktualneSource: Space-Track

Epoka: Jul 14, 2026, 01:26 UTC

1 31418U 99025BTE 26195.06011368  .00007103  00000-0  14037-2 0  9998
2 31418  99.1505 131.9001 0028064 295.0694  64.7592 14.62493027686616

Śledź FENGYUN 1C DEB w czasie rzeczywistym z AllMySat

Download on the App Store